Race Results for
Merco Credit Union Foothills Road Race
Merced County, CA
(Event Information)
View By:
Road Race on 03/01/2009

Note: Ranking points are NOT upgrade points. An explanation of ranking points can be found here.


Men - JR - 10-18

 Place Points NameCity, StateTime USAC #BibTeam
1468.09Kit Karzen   Beverly Hills, CA02:02:47.00 219208  812 NAW - MS Society
2479.17Stephen Leece   San Luis Obispo, CA02:02:47.00 282569  808 Rock Solid Cycling
3490.25Nate Geoffrion   Petaluma, CA02:02:48.00 280351  803 All Sport-Team Swift
4501.34Christopher Flanagan   San Francisco, CA02:02:49.00 276118  801 Team Swift
5512.42Samuel Bolster   Camino, CA02:17:34.00 258704  814 Team Kinetic Cycles
6Nick KINNEY   02:17:35.00  804 All Sport-Team Swift
7534.59John Piasta   Santa Rosa, CA02:17:36.00 271963  809 All Sport-Team Swift
9545.67Gento Kusano   Cupertino, CA02:17:40.00 272300  806 SJBC/SugarCRM
11556.75Zachary Sargent   Santa Rosa, CA02:17:50.00 249319  811 Team Swift
12567.83Jacob Dodge   Dinuba, CA02:17:58.00 287011  815 CSC
13578.92Chris LaBerge   Napa, CA02:31:09.00 229950  807 Team Specialized Racing
14590.00Johnny Mullane   Watsonville, CA02:32:40.00 281204  813 California Giant Cycling
DNSAlex KIZIS   00:00:00.00  805 NA
DNFSamuel CERRUTI   00:00:00.00  800 Cal Gaint Cycling
DNFBlake FORMANEK   00:00:00.00  802 Rio Strada Racing

Men - Pro/Cat 1/2

 Place Points NameCity, StateTime USAC #BibTeam
1500.16Ignacio (Iggy) Silva   San Diego, CA04:24:30.30 166264  149 Rock Racing
2500.69Taylor Tolleson (1 - Pro)   Watsonville, CA04:24:30.50 180179  31 BMC Pro Cycling Team
3501.22Andy Jacques-Maynes   Watsonville, CA04:24:30.50 17590  Bissell Pro Cycling Team
4501.75Freddie Rodriguez   Berkeley, CA04:24:30.80 30322  155 Rock Racing
5502.28Jason Lowetz   Williamsburg, MI04:24:31.20 129069  98 Team Bearclaw
6502.80Alessandro Bazzana   Oxnard, CA04:24:31.20 257488  133 Fly U Australia
7503.33Robert MacNeill   San Carlos, CA04:24:31.50 199599  115 Webcor/Alto Velo
8503.86Colby Elliot   San Diego , CA04:24:31.80 203446  145 Pista Pauacia
9504.39Dirk Copeland   Santa Clara, CA04:24:31.90 52843  35 California Giant -Specialized
10504.92Alexi Martinez   Costa Mesa, CA04:24:31.90 190569  69 Kahala La Grange
11505.45Andres Gil   Stockton, CA04:24:31.90 171882  79 Pacific State Bank Cycling Tea
12505.98Charlie Avis   Palo Alto, CA04:24:32.10 224306  154 Team Specialized
13506.51James Badia   Redwood City, CA04:24:32.10 200949  111 Webcor/Alto Velo
14507.04Andrew Goessling   Richmond, CA04:24:32.80 207262  128 ZteaM
15Lucas Sebastian HAEDO   04:24:32.80  50 Colavita Sutter Home p/b Cooki
16Alejandro BORRAJO   04:24:32.90  48 Colavita Sutter Home p/b Cooki
17508.62Sean Passage   Bend, OR04:24:32.90 153756  104 Unattached
18509.15Randy Bramblett   San Francisco, CA04:24:33.00 187194  138 Village Peddler
19509.68Carson Miller   Seattle, WA04:24:33.10 203931  140 Land Rover - Orbea
20510.21Ryan Parnes   Stockton, CA04:24:33.20 220414  137 Webcor Alto Velo
21510.74Paul Mach   Oakland, CA04:24:33.30 238694  Bissell Pro Cycling
22511.27William Hudak   Palo Alto, CA04:24:33.50 40450  62 GS Lombardi Sports
23511.80Zack Sober (1 - Cat2)   San Ramon, CA04:24:33.60 220077  121 Wells Fargo Racing Team
24512.32John Wilk   Oakland, CA04:24:33.60 199951  90 Sierra Pacific Racing
25512.85Eric Losak   San Clemente04:24:33.80 175239  106 VRC-MS Society
26513.38Lee Shuemake   Sonora, CA04:24:33.80 197770  82 Pacific State Bank Cycling Tea
27513.91Chris Turner   Los Altos, CA04:24:34.80 253101  10 Above Category Racing
28514.44Benjamin Lyon (2 - Cat2)   San Francisco, CA04:24:35.50 227794  135 Arete Racing
29514.97Jorge Alvarado (1 - Cat1)   04:24:35.50 201024  70 Kahala La Grange
30515.50Michael Margraf   Auburn, CA04:24:35.70 128847  131 Safeway Bicycles Plus
31516.03Jackson Stewart   San Jose, CA04:24:35.90 42023  30 BMC Pro Cycling Team
32516.56Keith Szolusha   Saratoga, CA04:24:36.30 109435  80 Pacific State Bank Cycling Tea
33517.08Mark Santurbane   San Luis Obispo, CA04:24:37.60 229325  41 California Giant -Specialized
35517.61Eric Fischer (3 - Cat2)   Berkeley, CA04:24:38.60 246309  147 Safeway Bicycle Plus
36518.14Ryan Eastman   Santa Rosa, CA04:24:39.10 251921  14 All Sport-Team Swift
37518.67Martin Adamczyk   San Diego, CA04:24:39.40 115698  92 SoCalCycling.com
38519.20Keck Baker   New Kent, VA04:24:39.50 211712  19 Battley-Harley Davidson/Sonoma
39UNKNOWN RIDER   04:24:39.70  126 
40520.26Bo Hebenstreit   Campbell, CA04:24:39.80 196276  109 Webcor/Alto Velo
41520.79Evan Pickett   Menlo Park, CA04:24:40.50 206742  75 Metromint Cycling on Marin Bik
42521.31Cody O'Reilly   Santa Barbara, CA04:24:41.90 141922  94 Bissell Pro Cycling
43521.84Mack Chew   San Francisco, CA04:24:43.60 170147  17 Arete' Racing
44522.37Kalen Gruber   Los Altos Hills, CA04:24:44.00 49467  95 SugarCRM
45522.90Sterling Magnell   Santa Rosa, CA04:24:44.80 120588  150 Rock Racing
46523.43Justin Laue   Austin, TX04:24:46.10 264982  129 ZteaM
47523.96Shaun Harless   San Francisco, CA04:24:46.20 179538  11 Above Category Racing
48524.49John Bergmann (2 - Cat1)   Albany, CA04:24:47.50 187522  32 BPG
49525.02Samuel Pickman   San Jose, CA04:24:47.80 133433  93 Specialized
50525.55Joel Robertson   San Leandro, CA04:24:47.90 220316  89 Sierra Pacific Racing
51526.07Dillon Clapp   Stevenson Ranch, CA04:24:48.10 6973  26 Bishop's Peak / Art's Cyclery
52526.60John McKeen (4 - Cat2)   Hope, MI04:24:48.40 226134  97 Team Bearclaw
53527.13John Van Dyke   Irvine Ca04:24:48.70 238430  24 Bike Religion
54527.66Nathan Freed   Tahoe City, CA04:24:48.80 86484  53 Cyclepaths/Wild Cherries Racin
55528.19Scott Moore   San Dimas, CA04:24:49.00 219020  23 Bike Religion
56528.72Blake Anton   Arroyo Grande, CA04:24:49.10 192686  63 HDR p/b Lombardi Sports
57Chad BEYER   04:24:50.40  27 BMC Pro Cycling Team
58529.78Jeff Williams   Los Gatos, CA04:24:51.30 236985  118 Webcor/Alto Velo
59530.31Sean McBride   Oakland, CA04:24:52.30 190591  66 HDR p/b Lombardi Sports
61530.83Tore Nauta   Los Gatos, CA04:24:53.30 237281  110 Webcor/Alto Velo
62531.36David Fuentes   Herndon, VA04:24:54.50 58598  18 Battley Cycles/Harley Davison/
63531.89Sheldon Deeny (2 - Pro)   Fort Collins, CO04:24:55.20 162195  Bissell Pro Cycling Team
65532.42Rand Miller   San Francisco, CA04:24:56.40 182990  139 Webcor/Alto Velo
66532.95David Van Orsdel   Minnetonka, MN04:24:56.60 246440  105 Unattached
67533.48Benjamin Jacques-Maynes   Corralitos, CA04:24:57.10 23057  Bissell Pro Cycling
68534.01Brandon Gritters   Mission Viejo, CA04:24:59.30 207755  71 Kahala-LaGrange
69534.54Luca Ortolani   San Francisco, CA04:24:59.70 207747  76 NA
70535.07Osvaldo Olmos   San Luis Obispo, CA04:25:00.50 172541  40 California Giant -Specialized
71535.59John Hunt   Fairfax, CA04:25:00.60 17154  36 California Giant -Specialized
72536.12Jesse Moore   Sacramento, CA04:25:01.00 204739  39 California Giant -Specialized
73536.65Greg Davis   Los Altos, CA04:25:05.30 119459  96 SugarCRM
74537.18Connor Spencer   San Francisco, CA04:25:07.70 256539  141 Metromint Cycling on Marin Bik
75537.71Henry Kramer   Menlo Park, CA04:25:10.70 52268  144 Sugar CRM
76Guido PALMA   04:25:11.20  46 Colavita Sutter Home p/b Cooki
77538.77Patrick Briggs   Oakland, CA04:25:16.90 4838  34 California Giant -Specialized
78539.30James Mattis   Mountain View, CA04:25:17.10 127344  37 California Giant -Specialized
79539.83Keith Miller   Los Gatos, CA04:25:17.20 53753  38 California Giant -Specialized
80540.35Evan Huffman   El Dorado Hills, CA04:25:17.80 256955  65 HDR p/b Lombardi Sports
81Micah CL0TEAUX   04:25:18.60  136 Grent Eagle
82Christopher CAREY   04:25:20.00  16 Arete' Racing
83541.94Aaron Beardsley   Berkeley, CA04:25:20.80 188253  101 Team Clif Bar
84542.47Jason Seaver   Glendale, CA04:25:25.30 210850  99 Team Bearclaw
85543.00Joao Correia   Brooklyn, NY04:25:27.70 50640  Bissell Pro Cycling Team
86543.53Tyler Wertenbruch   Los Osos, CA04:25:28.30 155433  91 SLO Nexus - Arbor Home Mortgag
87544.06Adam Switters (3 - Cat1)   Citrus Heights, CA04:25:34.60 127093  42 California Giant -Specialized
88544.59Neil Harrington   Los Altos Hills, CA04:26:05.40 247680  152 Webcor/Alto Velo
89545.11John Tzinberg   Corona Del Mar, CA04:26:09.00 228870  20 Bike Religion
90545.64Thomas Novikoff   San Jose, CA04:28:12.10 141331  113 Webcor/Alto Velo
91546.70Christopher Morales (5 - Cat2)   Stephens City, VA00:00:00.00 204491  56 Davis Bike Club
91Peter RENNIE   04:28:12.20  143 NOW-MS
92547.23Christopher Coble   San Francisco, CA04:30:44.30 220196  103 The Olympic Club
93547.76Paul Kundrat   Belvedere, CA04:32:40.80 59561  124 Wells Fargo Racing Team
94548.29Ted Willard   Aliso Viejo, CA04:39:26.70 218415  74 LiquidFitness.com/1031market
95548.82Vincent Owens   Fresno, CA04:39:27.30 242560  68 HDR p/b Lombardi Sports
96549.35Paul Penn   Hayward, CA04:42:34.50 57836  125 wells fargo team
97549.87Nick Schaffner   Truckee, CA04:44:50.80 187296  52 Cyclepaths/Wild Cherries Racin
DNSKris Lunning   San Rafael, CA00:00:00.00 121729  Above Category
DNSIan Tuttle (Cat1)   Mill Valley, CA00:00:00.00 216565  12 Above Category Racing
DNSJonathan Garcia (Cat1)   Fort Collins, CO00:00:00.00 220711  28 BMC Pro Cycling Team
DNSScott Nydam (Cat1)   Window Rock, AZ00:00:00.00 205020  29 BMC Pro Cycling Team
DNSJared Barrilleaux   Petaluma, CA00:00:00.00 248033  33 California Giant -Specialized
DNSBrandon Trafton   Sacramento, CA00:00:00.00 240033  43 Central Valley Cycling
DNSAaron OLSON   00:00:00.00  51 Colavita Sutter Home p/b Cooki
DNSRussell White   Lafayette, CA00:00:00.00 236024  59 Davis Bike Club
DNSZachary Wick   Davis, CA00:00:00.00 200743  60 Davis Bike Club
DNSKevin Klein   Menlo Park, CA00:00:00.00 47388  72 KLEIN Real Estate
DNSDan Martin   Pleasanton, CA00:00:00.00 179386  85 Safeway/Bicycle Plus
DNSKirt Fitzpatrick   San Francisco, CA00:00:00.00 11765  87 Sexual Camel
DNSTim Granshaw   Redwood City, CA00:00:00.00 55803  88 Sierra Pacific
DNSRichard Pego   Los Angeles, CA00:00:00.00 41144  102 Team Helens
DNSJustin Fraga   San Francisco, CA00:00:00.00 145583  107 Webcor / Alto Velo
DNSPeter Cazalet (Cat2)   Campbell, CA00:00:00.00 201895  116 Webcor/Alto Velo
DNSLucas Binder   San Diego, CA00:00:00.00 262024  127 ZteaM
DNSSteve O'MARA   00:00:00.00  130 ZteaM
DNFJeremy VENNELL   00:00:00.00  Bissell Pro Cycling
DNFTimothy Farnham   San Francisco, CA00:00:00.00 198206  Bissell Pro Cycling
DNFOmer Kem (Pro)   Ashland, OR00:00:00.00 194595  Bissell Pro Cycling
DNFJan Weissenberger   San Francisco, CA00:00:00.00 186678  13 Active Athlete/Squadra Ovest
DNFSteve Holmes (Cat2)   Mill Valley, CA00:00:00.00 199746  15 Areté Racing
DNFYacov Spivak   Fair Oaks, CA00:00:00.00 241816  44 Chico Corsa Cycling Team
DNFMichael Cordova   Chester, CA00:00:00.00 207547  45 Chico Corsa PB Sierra Nevada B
DNFDavide Frattini   Asheville, NC00:00:00.00 208805  49 Colavita Sutter Home p/b Cooki
DNFAlexander Wick   Davis, CA00:00:00.00 196337  54 Davis Bike Club
DNFCharles Alexander   Sacramento, CA00:00:00.00 206466  55 Davis Bike Club
DNFChris Stastny   Vacaville, CA00:00:00.00 249743  57 Davis Bike Club
DNFGregory White   Lafayette, CA00:00:00.00 246669  58 Davis Bike Club
DNFSassan Golafshan   Palo Alto, CA00:00:00.00 169945  61 Form Fitness
DNFTyler Brandt   Vallejo, CA00:00:00.00 210604  64 HDR p/b Lombardi Sports
DNFJesse Mendonca (Cat1)   San Jose, CA00:00:00.00 196277  67 HDR p/b Lombardi Sports
DNFSpencer SMITHEMAN   00:00:00.00  78 NOW - MS Society
DNFTodd Hennings   Kenwood, CA00:00:00.00 15835  81 Pacific State Bank Cycling Tea
DNFGraham Howard (Pro)   Grand Rapids, MI00:00:00.00 180491  83 Bissell Pro Cycling
DNFDanny Finneran (Cat1)   Oak Park, CA00:00:00.00 246923  84 Rock Racing
DNFMark Shimahara   Ventura, CA00:00:00.00 32481  100 Team Clif Bar
DNFFabrice DUBOST   Menlo Park, CA00:00:00.00 280966  108 Webcor alto velo
DNFChris Crawford (Cat2)   Napa, CA00:00:00.00 126286  112 Webcor/Alto Velo
DNFGraham Simpson   Carmel Valley, CA00:00:00.00 65800  114 Webcor/Alto Velo
DNFBrian Buchholz   San Francisco, CA00:00:00.00 189913  117 Webcor/Alto Velo
DNFRyan Prsha (Cat2)   San Jose, CA00:00:00.00 247068  119 Webcor/Alto Velo
DNFWilliam (Billy) Crane   Mountain View, CA00:00:00.00 138129  120 Webcor/Alto Velo
DNFMark Deterline   Salt Lake City, UT00:00:00.00 43613  122 Wells Fargo Racing Team
DNFPeter Graf (Cat2)   Sacramento, CA00:00:00.00 218511  123 Wells Fargo Racing Team
DNFChanning Chen   Burlingame, CA00:00:00.00 205706  132 Fusion Sport USA
DNFRicardo Escuela (Pro)   Santa Monica00:00:00.00 257489  134 UCI CT: Successful Living Pro
DNFNathaniel English   Berkeley, CA00:00:00.00 258309  142 ZteaM
DNFHendrik Pohl   San Francisco, CA00:00:00.00 207753  146 Fusion Sport USA
DNFRahsaan Bahati   Compton00:00:00.00 116625  148 Rock Racing
DNFAriel Herrmann   San Francisco, CA00:00:00.00 163046  153 Metromint Cycling
DNFJustin Williams   Los Angeles00:00:00:00 197316  151 Rock Racing

Men - Cat 1/2/3 - Master - 35-99

 Place Points NameCity, StateTime USAC #BibTeam
1423.51Matthew Carinio   San Luis Obispo, CA02:43:42.00 6109  214 Bishop's Peak Wines/ArtsCycler
2425.65Dustin Diede   Napa, CA02:43:43.00 206844  227 Team Precision
3427.78Scott Cole   Oakland, CA02:43:43.00 207165  219 Morgan Stanley/Team Spine/Spec
4429.92Tad Borek   San Francisco, CA02:43:43.00 55496  205 CRC/Poggio
5432.05Christopher Frank   Los Angeles, CA02:43:43.00 188846  238 Tean Helens
6434.19Judd Van Sickle   Sacramento, CA02:43:43.00 127052  300 Rocknasium
7436.32Stephen Cassani   Portola Valley, CA02:43:43.00 198619  216 Team Specialized Masters
8438.46Dan Martin   Pleasanton, CA02:43:43.00 179386  262 Safeway/Bicycle Plus
9440.59Andrew Kennedy   Martinez, CA02:43:43.00 257276  253 Team Hammer Nutrition p/b Kenn
10442.72Jeff Poulsen   Arnold, CA02:43:43.00 28533  283 Safeway/Bicycles Plus
11444.86James Miller   Newbury Park, CA02:43:43.00 232557  266 Team Helens
12446.99Brian Staby   Saint Helena, CA02:43:43.00 215179  293 Team Norcal Bike Sport
13449.13Kyle Glerum   Burlingame, CA02:43:43.00 195470  241 Safeway / Bicycles Plus
14451.26Michael Sayers   Fair Oaks, CA02:43:43.00 54591  291 Amgen/Giant Masters Cycling Te
15453.40William Innes   Menlo Park, CA02:43:43.00 52412  247 Team Specialized Racing
16455.53Matt Kramer   Los Gatos, CA02:43:43.00 183871  256 VOS-Cycles Gladiator
17457.67Jim Ivey   Salinas, CA02:43:44.00 240703  248 Don Chapin/ Monterey Bay Racin
18459.80Douglas Philippone   Washington, DC02:43:44.00 42635  280 Don Chapin/MBRT
19461.93Boris Rozenberg   Daly City, CA02:43:44.00 190311  289 
20464.07James Allen   Davis, CA02:43:44.00 196753  200 VOS-Cycles Gladiator
21466.20Jonathan Eropkin (1 - Cat1)   Fresno, CA02:43:45.00 197844  231 Safeway/Bicycles Plus
22468.34John Holderness   Alta Loma, CA02:43:46.00 40150  244 Southern California Velo
23470.47Alex Holtz   Sacramento, CA02:43:47.00 61440  245 EMC2-FELT
24472.61Christopher Baker   Sacramento, CA02:43:47.00 47424  204 EMC2/FELT
25474.74Craig Nunes   San Luis Obispo, CA02:43:47.00 178453  273 Bishop's Peak Wines/Artscylery
26476.88Greg McQuaid   San Francisco, CA02:43:47.00 249424  263 SJBC/SugarCRM
27479.01Brian Choi   Folsom, CA02:43:48.00 52849  217 Stuzio.com
28481.14Chris Carscadden   Walnut Creek, CA02:43:48.00 165751  215 HDR p/b Lombardi Sports
29483.28John O'Neill   San Mateo, CA02:43:48.00 52722  276 clover
30485.41Ken Calender   Salinas, CA02:43:49.00 115342  211 Don Chapin MBRT
31487.55Carl Hekkert   Sunnyvale, CA02:43:50.00 15729  243 FormFitness
32489.68Richard Bradley   Sacramento, CA02:43:50.00 223944  207 EMC2-Felt
33491.82Chad Timmerman   Reno, NV02:43:50.00 43029  298 Team Clover
34493.95Giampaolo Pesce   Santa Rosa, CA02:43:51.00 66425  278 norcal bike sport elite
35496.09Scott Wielt   San Rafael, CA02:43:52.00 38154  306 Armstrong Assoc/FCI Lending
36498.22David Yeung   Palo Alto, CA02:43:52.00 71941  311 Six-Fifty Racing
37500.35Leslie Oglesby   Salinas, CA02:43:54.00 53661  274 Don Chapin MBRT
38502.49Mark Gagner   San Jose, CA02:43:54.00 169733  239 Form Fitness Racing
39504.62Mark Walsh   Sacramento, CA02:43:54.00 46040  303 Berkeley Bicycle Club
40506.76Lance Cameron   Pacific Grove, CA02:43:54.00 5900  213 Don Chapin Monterey Bay Racing
41508.89Paul Dyrwal   San Rafael, CA02:43:55.00 254245  229 Morgan Stanley/Team Spine/Spec
42511.03Tim Butler   Clovis, CA02:43:55.00 239746  210 Sierra Pacific Racing
43513.16Duane Coughlan   Corte Madera, CA02:43:55.00 289093  220 CRC/Poggio
44515.30Michael Hutchinson   San Jose, CA02:43:56.00 156048  246 Morgan Stanley 24hr Fitness Sp
45517.43Jamie Willin   Redwood City, CA02:43:57.00 38466  308 the olympic club
46519.56Pablo Espinosa   Mountain View, CA02:43:57.00 50576  232 Lenovo Cycling Team
47521.70Jason Snovel   Sacramento, CA02:43:57.00 268577  292 Rocknasium
48523.83Scott Fonseca   Fair Oaks, CA02:43:59.00 204715  236 Zenn Racing Team
49525.97Nick Theobald   Burlingame, CA02:43:59.00 35297  296 SJBC/SugarCRM
50528.10Brian Peterson   Santa Cruz, CA02:43:59.00 196252  279 Webcor/Alto Velo
51530.24Daniel Bryant   Carmichael, CA02:44:00.00 195929  209 Safeway/Bicycle Plus
52532.37Peter Wood   Cupertino, CA02:44:01.00 196669  310 ThirstyBear
53534.50Michael Camarena   Lindsay, CA02:44:07.00 47386  212 Yokohl Ranch/Sierra Bicycle We
54536.64Herman Johnson   Modesto, CA02:44:09.00 53501  252 aptos bike station
55538.77Richard Del Valle   San Jose, CA02:44:09.00 9150  224 Morgan Stanley/Spine/Specializ
56540.91Mark Trujillo   Reno02:44:10.00 212418  299 Team Clover
57543.04Christopher Phipps   San Francisco, CA02:44:10.00 233623  281 Morgan Stanley/Team Spine/Spec
58545.18Chris Courtney   Oakdale, CA02:44:10.00 47303  221 Unattached
59547.31Tom Fahey   Lodi, CA02:44:35.00 54092  234 Webcor/Alto Velo
60549.45Jeremy Dixon   Lompoc02:44:49.00 61773  228 Kahala-LaGrange
61551.58Andrew Lancashire   Elk Grove, CA02:44:54.00 218734  258 Zenn Racing
62553.71Peter Brown   Santa Barbara, CA02:46:01.00 118988  208 Team Clover
63555.85Harold Johnson   Mill Valley, CA02:47:20.00 17952  251 Olympic Club
64557.98Chad DeMasi   Davis, CA02:47:28.00 158049  225 Rocknasium
65560.12Michael Audley   Berkeley, CA02:49:56.00 130080  203 Team Specialized Racing
66562.25Stephen Janke   Davis, CA02:50:30.00 188217  249 Rocknasium
68564.39Chris Lyman   Napa, CA02:54:11.00 267171  260 Morgan Stanley/Team Spine/Spec
69566.52Shawn Oliver   St. Helena, CA02:54:11.00 46241  275 Morgan Stanley/Team Spine/ Spe
70568.66Rich Mader   Sacramento, CA02:54:11.00 222996  261 Zenn Racing Team
71570.79Dave Nelson   San Jose, CA02:54:14.00 25843  270 b
72572.92Scott Thor (1 - Cat2)   Bakersfield, CA02:54:16.00 189065  297 AIAGE Cycling Club
73575.06Gus Platis   W Sacramento, CA02:54:36.00 40616  282 Team City Sacramento
74577.19Robin VanValkenburgh   Yuba City, CA02:56:03.00 62349  301 Rocknasium
75579.33Nathan Erickson   San Luis Obispo, CA02:57:45.00 63004  230 Bishop's Peak Wines / artscycl
76581.46Karl Weber   Santa Barbara, CA02:59:09.00 47819  305 NA
77583.60Robert Winder   Lafayette, CA03:00:58.00 220285  309 HDR p/b Lombardi Sports
78585.73David Loogman   Modesto, CA03:00:58.00 71865  259 HDR p/b Lombardi Sports
79587.87Dean LaBerge   Napa, CA03:04:50.00 67041  257 Team Specialized Racing
80590.00Brian Starr   Santa Maria, CA03:09:44.00 33862  294 
DNSJames Coats   Campbell, CA00:00:00.00 7200  218 morgan stanley/spine/specializ
DNSPaul Estabrook (Cat2)   Sacramento, CA00:00:00.00 93626  233 EMC2-Felt
DNSeric NELSON   00:00:00.00  271 Sunnyside Sports
DNSPeter Nicholson   Mill Valley00:00:00.00 219558  272 NorCal Bike Sport Elite
DNSRobert Pasco   Belmont, CA00:00:00.00 136970  277 SAFEWAY/Bicycles Plus
DNSmanuel rocha   Salinas, CA00:00:00.00 289740  284 none
DNSCraig Roemer   Petaluma, CA00:00:00.00 80925  285 Team Specialized Masters
DNSAlan Rowland   Davis, CA00:00:00.00 56017  288 Rocknasium
DNSEric Saltzman   Menlo Park, CA00:00:00.00 46157  290 Morgan Stanley/Team Spine/Spec
DNSGary WALL   00:00:00.00  302 Cynergy Cycles
DNSJames Walton   Menlo Park, CA00:00:00.00 48414  304 Six Fifty Racing
DNFJohn Allen   Long Beach, CA00:00:00.00 1414  201 Team Velocity
DNFGregory Anderson   Vacaville, CA00:00:00.00 90802  202 Morgan Stanley/Team Spine/Spec
DNFJason Boynton   Yuba City, CA00:00:00.00 4526  206 Rocknasium
DNFChris D'Aluisio   Corralitos, CA00:00:00.00 100984  222 Morgan Stanley/Specailized
DNFDavid Del Rosso   Dublin, CA00:00:00.00 187432  223 HDR p/b Lombardi Sports
DNFScott Derdenger   Benicia, CA00:00:00.00 55123  226 HDR p/b Lombardi Sports
DNFJohn Ford   Redwood City, CA00:00:00.00 129994  237 Morgan Stanley/Team Spine/Spec
DNFGregory Gambetta   Sacramento, CA00:00:00.00 212916  240 Safeway/Bicycle Plus
DNFJustin Hall   El Dorado Hills, CA00:00:00.00 81780  242 Rocknasium
DNFRaffi Jilizian   Danville, CA00:00:00.00 187667  250 Team NorCal Bike Sport
DNFSpencer Kenner   Davis, CA00:00:00.00 86651  254 Armstrong & Associates / FCI L
DNFJay Kinney   Placerville, CA00:00:00.00 125352  255 NA
DNFBubba Melcher   Reno, NV00:00:00.00 23961  264 Team Clover
DNFJack Miller (Cat3)   Bakersfield, CA00:00:00.00 142264  265 ActionSports/SSC
DNFMark Miller   Draper, UT00:00:00.00 24435  267 Canyon Bicycles-Draper
DNFPaul Mircik   Los Altos, CA00:00:00.00 126621  268 FormFitness
DNFJeff Needham   Vacaville, CA00:00:00.00 91021  269 
DNFJohn Rondash   Los Angeles, CA00:00:00.00 52283  286 Team Helen Elite Masters
DNFDanny Rondon   Tulare , CA00:00:00.00 30514  287 SIERRA PACIFIC RACING
DNFJoseph Sulse   Creston, CA00:00:00.00 143698  295 Team Helen's
DNFKenneth Williams   Kenmore, WA00:00:00.00 57046  307 1st rate mortgage

Men - Cat 1/2/3/4 - Master - 45-99

 Place Points NameCity, StateTime USAC #BibTeam
1442.84Gregg Betonte   Truckee, CA01:55:49.90 255414  1105 Safeway / Bicycles Plus
2445.00Daniel Smith   Menlo Park, CA01:55:50.10 33087  1179 Morgan Stanley/Specialized/24h
3447.17Stephen Gregorios   Long Beach, CA01:55:50.30 135047  1132 Edge
4449.33Clark Rasmussen   San Francisco, CA01:55:51.20 47316  1173 Wells Fargo Racing Team
5451.50Michael O'Rourke   Auburn, CA01:55:51.40 204496  1165 victory velo/proactive
6453.66Hunter Ziesing   Bel Tiburon, CA01:55:51.50 39478  1199 ZteaM
7455.82Stanley Terusaki   Livermore, CA01:55:51.50 35241  1186 Morgan Stanley/Team Spine/Spec
8457.99Mark Vandenberghe   Lafayette, CA01:55:51.60 36393  1190 Wells Fargo Racing Team
9460.15Leon Pitts   Carmel, CA01:55:51.60 213367  1170 VOS-Cycles Gladiator
10462.32Alan Nielson   Dublin, CA01:55:51.80 236183  1162 Wells Fargo Racing Team
11464.48Ted Toribio   Elk Grove01:55:51.80 88963  1188 International Christian Cyclin
12466.65Russell Cadwallader   Aptos, CA01:55:52.10 5785  1110 Team Bicycle Trip
13468.81Fred Schnaars   Davis, CA01:55:52.30 65032  1178 Davis Bike Club
14470.97Shin Umeda   Sunnyvale, CA01:55:52.50 46023  1189 Webcor/Alto Velo
15473.14Duane Bolt   Pleasanton, CA01:55:52.70 47096  1107 International Christian Cyclin
16475.30Kevin Willitts   S Lake Tahoe, CA01:55:53.10 192774  1196 Garrison Institutional
17477.47Brian Fessenden   Orinda, CA01:55:53.20 54692  1124 Morgan Stanley/Team Spine/Spec
18479.63David Leece   San Luis Obispo, CA01:55:54.00 53397  1146 Rock Solid Cyclery
19481.79Robert Nichols   Lockeford, CA01:55:54.10 255632  1161 Pacific State Bank cycling tea
20483.96John Steggall   Davis, CA01:55:54.20 135891  1181 Davis Bike Club
21486.12Dennis Pedersen   Santa Cruz, CA01:55:54.80 126404  1168 Team Bicycle Trip
22488.29Bryan Buck   San Jose, CA01:55:54.90 141246  1102 Webcor/Alto Velo
23490.45Ron Callison   Danville, CA01:55:55.10 130870  1114 VSRT/Livermore Cyclery
24492.61Chris Black   San Luis Obispo, CA01:55:55.20 3814  1106 Morgan Stanley /Team Spine/ Sp
25494.78Robert Parker   San Jose, CA01:55:55.20 48416  1167 Webcor/Alto Velo
26496.94Glenn Mattsson   Santa Rosa, CA01:55:55.40 100331  1151 Fightin' Bobas
27499.11Jim Huebner (1 - Cat3)   Clovis, CA01:55:55.40 254019  1141 Action Sports/Southern Sierra
28501.27Allen House   Pleasanton, CA01:55:55.60 219153  1140 VSRT LifestyleRx
29503.44Darryl Smith   Pleasanton, CA01:55:55.70 33092  1180 International Christian Cyclin
30505.60Thomas Coulter   Rocklin, CA01:55:55.80 74102  1118 Morgan Stanley/Team Spine/Spec
31507.76Stefano Schiaffino   Pleasanton, CA01:55:56.00 257173  1177 International Christian CC
32509.93Joe Platin   Santa Cruz, CA01:55:56.40 256834  1171 Team Bicycle Trip
33512.09Jon Ornstil   San Francisco, CA01:55:56.80 71802  1164 VOS-Cycles Gladiator
34514.26Martin Wolff   Carmel, CA01:55:57.70 203646  1197 VOS-Cycles Gladiator
35516.42Roger Von Rotz   Modesto, CA01:55:58.10 240458  1191 VSRT/Livermore Cyclery
36518.58David Buccola   Pleasanton, CA01:55:59.80 195485  1109 InfoVista Cycling Team
37520.75Andy Welling   Santa Rosa, CA01:55:59.90 238307  1192 Fightin Bobas
38522.91Richard Shields   Fremont, CA01:56:00.00 140693  1120 Team Hammer Nutrition
39525.08Steven Grusis   Madera, CA01:56:00.50 60756  1133 Rubber Soul/CSC Racing Team
40527.24James Morgan   Oakland, CA01:56:00.80 208555  1158 Webcor/Alto Velo
41529.40Michael Vella   Saratoga, CA01:56:01.50 167402  1103 Webcor/Alto Velo
42531.57Tony Reid   Sacramento, CA01:56:02.50 29458  1104 Safeway / Bicycles Plus
43533.73Dave Gane   San Leandro, CA01:56:05.00 12735  1128 Morgan Stanley/Spine/Specializ
44535.90George Meilahn   Antioch, CA01:56:05.10 166581  1155 International Christian Cyclin
45538.06William Dunham   San Jose, CA01:56:05.60 206162  1121 Webcor/Alto Velo
46540.23Dana Farmer   Gold River, CA01:56:05.90 150815  1123 VOS-Cycles Gladiator
47542.39Paul Chuck   Berkeley, CA01:56:06.30 51558  1116 Morgan Stanley/Team Spine/Spec
48544.55Steven Archer   Danville, CA01:56:06.60 87938  1101 MorganStanley/TeamSpine/Specia
49546.72Martin Wensley   Los Gatos, CA01:56:08.20 142214  1108 Sugar CRM
50Gary WALL   01:56:11.80  1125 Cynergy Cycles
51551.05Jan Elsbach   Davis, CA01:56:13.80 200149  1122 VOS-Cycles Gladiator
52553.21Russell McCrary   San Ramon, CA01:56:13.80 253276  1152 ZteaM Cycling
53555.37David Cochran (1 - Cat4)   Fairfax, CA01:56:15.10 236799  1117 ZTEAM
54557.54Jess Raphael   Napa, CA01:56:20.80 221460  1172 Safeway / Bicycles Plus
55559.70Peter Allen   Fair Oaks, CA01:56:22.20 46996  1100 Safeway / Bicycles Plus
56561.87Shane Huntoon   Livermore, CA01:56:26.50 17200  1142 International Christian Cyclin
57564.03Thomas Kellner   Sacramento, CA01:57:08.80 195574  1143 Tuesday Velo/Team Voler
58566.19Max Thompson   San Anselmo, CA01:57:41.00 80642  1187 Morgan Stanley/Team Spine/Spec
59568.36Mark Switters   Folsom, CA01:57:58.60 59052  1184 Sacramento Golden Wheelmen
60570.52William Lico   San Jose01:57:59.80 134972  1148 international christian cyclin
61572.69Skot McDaniel   Novato, CA01:58:00.80 228100  1153 ZTeam
62574.85John Hostetler   Boulder Creek, CA01:58:14.30 243622  1156 SJBC/SugarCRM
63577.02Larry Hampson   Marina, CA02:01:57.70 49323  1135 VOS-Cycles Gladiator
64579.18Glenn Hammerson   Manteca, CA02:06:23.90 208644  1134 VSRT/Livermore Cyclery
65581.34Matt Yaden   Danville, CA02:12:27.50 238250  1198 Wells Fargo Racing Team
66583.51John Hansen   Danville, CA02:12:27.80 113380  1137 wells fargo racing team
67Peter STOCK   02:17:58.20  1183 ZteaM Cycling
68587.84Bud Napolio   San Francisco, CA02:17:58.50 60298  1160 Wells Fargo Racing Team
69590.00John Hancock   Sacramento, CA02:20:57.60 195844  1136 
DNSMark Caldwell   Moraga, CA00:00:00.00 40039  1111 morgan stanley/team spine/spec
DNSMorgan Caldwell   Lafayette, CA00:00:00.00 55374  1112 Morgan Stanley/24 Hr Fitness
DNSScott Calley   Monterey, CA00:00:00.00 195999  1113 VOS-Cycles Gladiator
DNSCarl Canaparo   San Ramon, CA00:00:00.00 212014  1115 International Christian Cyclin
DNSRichard Coyle   Granite Bay, CA00:00:00.00 277158  1119 Rio Strada Racing
DNSClark Foy   Los Gatos, CA00:00:00.00 255066  1126 SJBC/SugarCRM
DNSErnest Gallardo Sr   Soledad Ca.00:00:00.00 12682  1127 VOS-Cycles Gladiator
DNSSteven Gile   Salinas, CA00:00:00.00 98978  1129 VOS - Cycles Gladiator
DNSJ Gilford   Santa Cruz, CA00:00:00.00 87571  1130 Morgan Stanley/Team Spine/Spec
DNSEdward Gong   Stockton, CA00:00:00.00 13597  1131 Pacific State Bank CyclingTeam
DNSRocco Hollaway   Modesto, CA00:00:00.00 195261  1138 VSRT
DNSMark Holmes   Turlock, CA00:00:00.00 16603  1139 East Bay Cyclists
DNSChristopher KEMP   00:00:00.00  1144 Team City
DNSAlfred Kerr   Willits, CA00:00:00.00 262541  1145 Fightin' Bobas
DNSBrian Lewis   Lafayette, CA00:00:00.00 78134  1147 Morgan Stanley/Team Spine/Spec
DNSCraig Lindberg   Nevada City, CA00:00:00.00 83707  1149 SERT/Sho-Air
DNSThomas McDonough   Ukiah, CA00:00:00.00 68163  1154 Fightin' Bobas
DNSRobert Montuori   Newcastle, CA00:00:00.00 224234  1157 Team Bicycles Plus/Sierra Neva
DNSTracy Muegge   Gold River, CA00:00:00.00 51637  1159 Rio Strade - Sacramento
DNSKevin ODonnell   Greenbrae, CA00:00:00.00 242028  1163 ZTeam
DNSScott Osgood   Modesto, CA00:00:00.00 26875  1166 VSRT
DNSLloyd Rath   San Francisco, CA00:00:00.00 65453  1174 Mako / Mellow Motors
DNSCale Reeder   Cameron Park, CA00:00:00.00 272237  1175 International Christian Cyclin
DNSMark Robertson   Oakland, CA00:00:00.00 237380  1176 Taleo Racing
DNSCraig Stewart   Orinda, CA00:00:00.00 205201  1182 Taleo Racing
DNSErim Taser   Lodi, CA00:00:00.00 205116  1185 Pacific State Bank
DNSRay Wenzel   San Francisco, CA00:00:00.00 271631  1193 Cycling Systems
DNSRandy WHITE   00:00:00.00  1194 Rio Strada
DNSNelson Willhite   Sunnyvale, CA00:00:00.00 219614  1195 SERT/Sho-Air
DNFGregg Marioni   San Anselmo, CA00:00:00.00 22517  1150 ZteaM Cycling
DNFGregory Pike   Salinas, CA00:00:00.00 158350  1169 VOS Racing - Cycles Gladiator

Men - Cat 3

 Place Points NameCity, StateTime USAC #BibTeam
1488.60Joseph Cahoon   Morgan Hill, CA02:48:38.00 40688  415 Specialized
2490.18Aaron Gomez   San Luis Obispo, CA02:48:38.00 257426  430 Rock Solid Cycling
3491.77Joel Shaffer   Los Altos Hills, CA02:48:39.00 208502  485 Team Specialized Racing
4493.35Michael Rochlin   San Francisco, CA02:48:39.00 168452  480 me.and myself!
5494.94Sean Smith   Oakland, CA02:48:39.00 204018  489 Kaiser Permanente/Team Oakland
6496.52Carmi Schulman   Seattle, WA02:48:39.00 200292  484 Sportgenics/Squadra Ovest
7498.11Peter Montoya   Fresno, CA02:48:39.00 222038  472 Steven's Bicycles Racing
8499.69Scott Herring   Sausalito, CA02:48:39.00 236346  440 Touchstone Climbing
9501.27Toby Long   Oakland, CA02:48:39.00 262539  464 Kaiser Permanente / Team Oakla
10502.86Brad Hillebrandt   Alamo, CA02:48:39.00 16219  506 Taleo
11504.44Keith Hillier   Millbrae, CA02:48:39.00 276108  443 Davis Bike Club
12506.03Nathan Shaw   Castro Valley, CA02:48:39.00 196249  486 Fusion Sport
13507.61Bill Brier   Fremont, CA02:48:39.00 274225  412 Team Integrate / FFBC p/b Chip
14509.20John Cheetham   Pleasanton, CA02:48:40.00 202515  417 Metromint Cycling
15510.78Joshua Lerner   San Francisco, CA02:48:40.00 206346  461 Fusion Sport
16512.37Michael Gil   San Francisco, CA02:48:40.00 261220  428 Godspeed Courier
17513.95Benjamin Dodge   San Jose, CA02:48:40.00 178595  423 LGBRC-Specialized
18515.53Seth Berling   Belvedere, CA02:48:40.00 266706  406 Team Roaring Mouse
19517.12Keith Jordon   Hayward, CA02:48:40.00 254515  455 Berkeley Bicycle Club (BBC)
20518.70Jeremy Sparks   Aurora, CO02:48:40.00 246296  490 Wells Fargo Racing Team
21520.29Gabriel Keck   Boise Id02:48:42.00 181890  456 Fusion Sport
22521.87Maurice Monge   San Jose, CA02:48:42.00 257119  471 SJBC/SugarCRM
23523.46Ernest Sanchez   Murrieta, CA02:48:42.00 53550  482 CA Pools Racing
24525.04Tyron Hooper   San Francisco, CA02:48:44.00 251276  446 Fusion Sport
25526.62James LaBerge   Napa, CA02:48:48.00 221376  458 Team Specialized Racing
26528.21Nick Hanni   San Francisco02:48:48.00 96693  436 Fusion Sport
27529.79Jacob Hanna   Rancho Santa Margarita, CA02:48:48.00 210681  435 sho-air/sonance
29531.38Callum Ingram   Charlottesville, VA02:48:49.00 268349  453 Unattached
30532.96Sean McDonald   Wallace, CA02:48:49.00 262357  507 Delta Velo
31534.55wilson gorrell   Folsom, CA02:48:49.00 254622  431 Safeway/Bicycles Plus
32536.13Michael Egan   West Sacrametno, CA02:48:49.00 124893  425 Sacramento Golden Wheelmen
33537.72Maurice Daroy   Brentwood, CA02:48:52.00 236133  421 Wells Fargo Racing Team
34539.30Eric Hoffmann   San Francisco, CA02:48:54.00 219415  444 Touchstone Climbing
36540.88Michael Ricks   Stockton, CA02:48:56.00 250319  479 Chico Corsa
37542.47Darren Leva   Woodside, CA02:48:56.00 221519  462 Sexual Camel
39544.05Brandon Correia   Alameda, CA02:49:03.00 188308  419 Godspeed Courier
40545.64Benjamin Stern   Mequon, WI02:49:03.00 238365  493 Team Roaring Mouse
41547.22John Ormsby   Berkeley, CA02:49:04.00 219328  474 Touchstone Climbing
42548.81Chad MacDonald   Pleasant Hill, CA02:49:08.00 170454  466 Wells Fargo
43550.39Ryan MacDonald   Martinez, CA02:49:08.00 160274  467 Well's Fargo Racing Team
44551.98Robert Hansen   South Jordan, UT02:49:08.00 143463  437 Canyon Bicycles - Draper
45553.56David Parrish   San Francisco, CA02:49:13.00 233830  475 Team Roaring Mouse
46555.14David Porter   San Jose, CA02:49:13.00 126711  477 TBS Racing
47556.73wayne hansen   Palo Alto, CA02:49:25.00 272247  438 VeloTech Cycles Palo Alto
48558.31Travis T   San Francisco, CA02:49:37.00 158451  495 Metromint Cycling
49559.90Aaron Hanna   San Jose, CA02:50:16.00 204722  434 Easton/SugarCRM/Specialized
50561.48Robert Luttrell   San Francisco, CA02:51:01.00 196333  465 Fusion Sport
51563.07Marc Peter Foose   San Francisco, CA02:51:02.00 11978  426 Fusion Sport
52564.65Tony Homes   Danville, CA02:51:52.00 210572  445 Wells Fargo Racing Team
53566.23Scott Peradotto II   San Francisco02:52:27.00 190044  476 Fusion Sport
54J Devon ALVAREZ   02:52:33.00  402 
55569.40Shawn Nelson   Altadena, CA02:54:06.00 25898  473 Santa Clarita Velo
56570.99Whitney Bradley   Burlingame, CA02:54:10.00 118779  410 Peninsula Velo/Pomodoro
57572.57Robbin Goldfoos   Maple Valley, WA02:54:28.00 196376  429 First Rate Mortgage Cycling
58574.16Garry Birch   Dublin, CA02:55:28.00 136971  407 Team Integrate / FFBC p/b Chip
59575.74Scott Vinson   Bellevue, WA02:55:29.00 70843  501 First Rate Mortgage Cycling Te
60577.33Kristopher Spyrka   Alamo, CA02:55:38.00 207144  492 Taleo Racing
61578.91Kaley Parkinson   Danville, CA02:58:11.00 195339  505 Taleo Racing
62580.49Ammon Skidmore   San Bruno, CA02:58:45.00 242417  488 Team Roaring Mouse
63582.08Jonathan Sinclair   Hollister, CA03:00:44.00 113194  487 SJBC/SugarCRM
64583.66Demetrius Houpis   Roseville, CA03:01:43.00 186809  449 Davis Bike Club
65585.25Mark Herynk   Redwood City, CA03:01:47.00 157123  441 Webcor/Alto Velo
66586.83Bryan Pro   Davis, CA03:01:50.00 195430  478 Davis Bike Club
67588.42Jeffrey Galland   Paradise, CA03:03:13.00 127804  427 CHICO CORSA/SIERRA NEVADA
68590.00Jake Mestre   Reno, NV03:38:08.00 205653  470 Reno Wheelmen
DNSDavid Anthony   Fremont, CA00:00:00.00 195564  403 Metromint Cycling
DNSPeter Bailey   Palo Alto, CA00:00:00.00 230238  404 Kovarus / ABTA
DNSStone Beck   Fresno, CA00:00:00.00 219237  405 Steven's Bicycles Racing
DNSLutz Braun   Clovis, CA00:00:00.00 258096  411 Central Valley Cycling
DNSBradley Cabral   Los Gatos, CA00:00:00.00 228507  414 Summit bike
DNSPatrick Carroll   San Francisco, CA00:00:00.00 90587  416 Excel Sports Boulder
DNSKieran Cox   Oakland, CA00:00:00.00 244305  420 Team Oakland
DNSStephen DeLong   Tucson, AZ00:00:00.00 230310  422 Third Pillar
DNSTimothy Eades   Redwood City, CA00:00:00.00 154437  424 
DNSZachary Griffin   Bakersfield, CA00:00:00.00 142398  432 FinishLine
DNSDavid Huang   Davis, CA00:00:00.00 159154  452 Davis Bike Club
DNSPeter Lanik   Ashburn, VA00:00:00.00 226531  460 Steven's Bicycles Racing
DNSDan Tedford   Mountain View, CA00:00:00.00 196695  498 Sportgenic/Squadra Ovest
DNSVaughn Van Note   Martinez, CA00:00:00.00 47564  500 Wells Fargo Racing Team
DNSRaymond Cogan   San Francisco, CA00:00:00.00 201255  504 Fusion Sport USA
DQBrian Johnston   San Francisco, CA 237599  454 Kaiser Permanente/Team Oakland
DNFDavid Acri   San Francisco00:00:00.00 233803  400 squadra ovest
DNFDan Adkins   Oakland, CA00:00:00.00 177509  401 Metromint Cycling
DNFMichael Boals   Berkeley, CA00:00:00.00 221818  408 Metromint Cycling on Marin Bik
DNFSantiago Bolon   San Jose, CA00:00:00.00 195384  409 ICCC
DNFScott Butler   Columbia, MO00:00:00.00 106701  413 Pacific State Bank Cycling Tea
DNFMarkham Connolly   Berkeley, CA00:00:00.00 208359  418 Touchstone Climbing
DNFdonald hahn   Reno, NV00:00:00.00 280149  433 NA
DNFScott Hartzel   San Francisco, CA00:00:00.00 125944  439 none
DNFBrandon Hill   Jensen Beach, FL00:00:00.00 238904  442 River City Racing/Language 411
DNFSean Hoover   Riverton, UT00:00:00.00 197932  447 Canyon Cycle Draper
DNFMarty Houck   Bainbridge Island, WA00:00:00.00 177235  448 First Rate Mortgage
DNFEric Hovland   Danville, CA00:00:00.00 42891  450 Wells Fargo Racing Team
DNFBrandon Howard   Fresno, CA00:00:00.00 228273  451 Central Valley Cycling
DNFTodd Kohli   San Francisco, CA00:00:00.00 198414  457 arete' racing
DNFAaron Long   Oakland, CA00:00:00.00 158083  463 ThirstyBear/CVC/Barlata/3Ring
DNFBret Martin   Oakland, CA00:00:00.00 60446  469 Sycip
DNFTom Rosencrantz   Mill Valley, CA00:00:00.00 91336  481 Taleo Racing
DNFDavid SCHMIDT   00:00:00.00  483 First Rate Mortgage
DNFBradley Moore   San Mateo, CA00:00:00.00 85429  491 Lombardi Sports
DNFNole Studley   Oakland, CA00:00:00.00 251301  494 Team Roaring Mouse
DNFCody Tapley   Citrus Heights, CA00:00:00.00 234610  496 Davis Bike club
DNFPeter Taylor   Walnut Creek, CA00:00:00.00 219859  497 Team Specialized Racing
DNFKevin Torbett   Walnut Creek, CA00:00:00.00 58379  499 Wells Fargo Racing Team/C4
DNFNathan Webber   Port Orchard, WA00:00:00.00 87178  502 First Rate Mortgage
DNFJohn Wooldridge   Alamo, CA00:00:00.00 38940  503 Wells Fargo Racing Team

Men - Cat 4

 Place Points NameCity, StateTime USAC #BibTeam
1519.77Brad Rampelberg   San Jose, CA01:54:56.00 177382  978 Webcor/Alto Velo
2520.88Andrew Fox   Mill Valley, CA01:54:56.00 258267  928 Fusion Sport
3522.00Jeffrey Lin   Cupertino, CA01:54:56.00 286962  907 Team Integrate/FFBC
4523.11Christopher Kurrle   San Francisco, CA01:54:56.00 257699  949 Touchstone Climbing
5524.23Peter Armstrong   Lafayette, CA01:54:56.00 279806  904 Taleo Racing
6525.34Michael Jasinski   Rocklin, CA01:54:56.00 269476  945 chico corsa
7526.46Eric Clauss   San Francisco, CA01:54:57.00 198040  922 Sportgenic / Squadra Ovest
8527.57Derek Milsaps   Vacaville, CA01:54:57.00 256020  959 Precision Bicycles
9528.69Josh Chauvet   Reno , NV01:54:57.00 6691  919 Team Roaring Mouse
10529.80Matt Abdalah   Los Altos, CA01:54:57.00 224627  901 SugarCRM/SJBC
11530.92Ryan Byars   Durham, NC01:54:57.00 266612  916 Team Roaring Mouse
12532.03Christopher Barker   Rancho Cordova, CA01:54:57.00 196545  906 Rio Strada Racing
14533.15Alvaro Mosquera   Sacramento, CA01:54:58.00 236809  961 Berkeley Bicycle Club (BBC)
15534.26Naveen Molloy   Sanfrancisco, CA01:54:58.00 283139  960 Metromint Cycling
16535.38Stephen Grimes   Sacramento, CA01:54:58.00 261152  935 Davis Bike Club
17Alexander BLEASE   01:54:58.00  902 Chico Corsa
18537.61Robert Manly   San Francisco, CA01:54:58.00 272128  956 Metromint Cycling on Marin Bik
19538.72Samuel Parker   San Francisco, CA01:54:58.00 88610  969 Team Roaring Mouse
20539.84Shawn Yackle   Brooklyn, NY01:54:58.00 237175  997 Godspeed Courier
21540.95Parker Childress   Davis, CA01:54:59.00 225433  921 Davis Bike Club
22542.07Eliot Logan   Palo Alto, CA01:54:59.00 182819  954 Webcor/Alto Velo
23543.18Anthony Eng   El Cerrito, CA01:54:59.00 245065  926 Kaiser Permanente / Team Oakla
24544.29Kevin White   San Francisco, CA01:54:59.00 256199  995 Godspeed Courier
25545.41James Berry   San Francisco, CA01:55:00.00 271681  909 Dolce Vita Cycling
26546.52Paul Ngo   San Jose, CA01:55:00.00 275571  965 Team Roaring Mouse
27547.64Chris Cerruti   Watsonville, CA01:55:01.00 198811  917 Cal Gaint Cycling
28548.75Thomas Gross   San Francisco, CA01:55:02.00 263396  905 Dolce Vita
29549.87Jim Riley   Oakalnd, CA01:55:02.00 287039  981 Godspeed Courier
30550.98Jason Arinno   Elk Grove, CA01:55:02.00 260928  903 Davis Bike Club
31552.10Chris Spier   Los Gatos, CA01:55:02.00 276286  989 NA
32553.21Isaias Job   Fremont, CA01:55:06.00 207885  946 Team Roaring Mouse
33554.33Timothy Bisson   San Jose, CA01:55:31.00 221552  911 Fremont Freewheelers
34555.44Joshua Bullock   Sacramento, CA01:55:50.00 153414  915 Chico Corsa
35556.56Allen Brumm   Foster City, CA01:55:53.00 195431  914 Webcor/Alto Velo
36557.67Bryan Warhold   Sacramento, CA01:55:54.00 148346  994 Davis Bike Club
37558.79Darren Chamberlain   Salinas, CA01:55:59.00 204682  918 Taleo Racing
38559.90David Doll   Merced, CA01:56:01.00 281768  925 Stanislaus/Merlock Velo
39561.02Robert Orcutt   Scotts Valley, CA01:56:01.00 269340  967 Webcor / alto velo
40562.13Joshua Godar   San Francisco, CA01:56:02.00 255508  933 Godspeed Courier
41563.25Monte Boyle   Simms, MT01:56:06.00 218669  912 Team Clover
42564.36Matt Abbott   Santa Rosa, CA01:56:07.00 260224  900 2 WHEEL RACING
43565.48Ron Nelson   Martinez, CA01:56:21.00 257207  964 NA
44566.59Peter Rumble   Santa Rosa, CA01:56:28.00 242773  983 Cycling Systems
45567.70Jeffery Chen-Harding   San Francisco01:57:11.00 277339  920 Dolce Vita Cycling
46568.82Liam Stewart   San Francisco, CA01:57:13.00 271049  990 Team Roaring Mouse
47569.93Michele Brocato   Lafayette, CA01:57:38.00 177046  913 InfoVista Cycling Team
48571.05Juan Raigoza   Redwood City, CA01:57:53.00 219477  977 Webcor / Alto Velo
49572.16Marc-Cedric Latreille   Vallejo, CA01:57:56.00 260294  951 Metromint Cycling on Marin Bik
50573.28James Hayden   San Francisco, CA01:59:31.00 250790  940 Fusion Sport
51574.39Sam Benedict   Morgan Hill, CA01:59:31.00 194963  908 Specialized
52575.51Roland Pieruschka   Stanford, CA01:59:34.00 277391  971 Webcor/Alto Velo
53576.62Anthony Bezsylko   Chicago, IL01:59:35.00 238364  910 Metromint Cycling
54577.74Jeff Remer   El Cerrito, CA01:59:59.00 267197  980 Team Roaring Mouse
55578.85Mateo Ortega   Brisbane, CA02:00:00.00 255427  968 Team Roaring Mouse
56579.97James Porter   Palo Alto, CA02:00:36.00 238708  973 Webcor/Alto Velo
57581.08Stephen Nishimura   Mill Valley, CA02:01:17.00 238448  966 Dolca Vita Cycling
58582.20German Villa   San Lorenzo, CA02:01:20.00 224232  993 Berkeley Bicycle Club (BBC)
59583.31Paul Taylor   Brentwood, CA02:01:49.00 207281  992 Metromint Cycling
60584.43Rob Leever   Citrus Heights, CA02:04:33.00 267651  952 Rio Strada Racing
61585.54James Hanacek   Fair Oaks, CA02:04:35.00 196180  938 Rio Strada Racing
62586.66Corey Scobie   Pleasanton, CA02:04:59.00 272080  986 InfoVista Cycling Team
63587.77John Swift   San Jose, CA02:04:59.00 273816  991 Touchstone Climbing
64588.89Christopher Coble   Concord, CA02:06:59.00 254754  923 Taleo Racing
65590.00Gaelan Mundorff   Fremont, CA02:30:15.00 196301  963 Third Pillar
DNSJames Gordon   San Francisco, CA00:00:00.00 271557  934 Dolce Vita Cycling
DNSZach Hamm   Folsom, CA00:00:00.00 221161  937 Team RFAR
DNSDonald Harris   San Francisco, CA00:00:00.00 271814  939 dolce vita
DNSMiguel Henderson   Alameda, CA00:00:00.00 255335  941 Tieni Duro
DNSJoshua Houssiere   Fresno, CA00:00:00.00 66056  943 Stevens Bicycle Racing
DNSAllen Jones   Dublin, CA00:00:00.00 255750  947 InfoVista Cycling Team
DNSRyan Lenhardt   San Ramon, CA00:00:00.00 20890  953 Taleo Racing
DNSKiernan McGuire   Mill Valley, CA00:00:00.00 211423  957 Dolce Vita Cycling
DNSEvan Paull   Santa Cruz, CA00:00:00.00 125808  970 Evan Paull
DNSRoland Pieruschka   Stanford, CA00:00:00.00 277391  972 Webcor/Alto Velo
DNSEdward Price   Aptos, CA00:00:00.00 84614  974 Team Bicycle Trip
DNSBrian Priddin   El Dorado, CA00:00:00.00 178247  975 NA
DNSJared PRINCE   00:00:00.00  976 Godspeed Couriers
DNSLloyd Ranola   Oakland, CA00:00:00.00 198425  979 Active Athlete/Squadra Ovest
DNSJohn Roberts   San Francisco, CA00:00:00.00 270329  982 ZteaM
DNSRichard Silberg   Berkeley, CA00:00:00.00 219572  987 Dolce Vita Cycling
DNSWilliam Sinkford   Redding, CA00:00:00.00 256096  988 Godspeed Courier
DNSKalman Zeiger   San Francisco, CA00:00:00.00 237651  998 Godspeed Courier
DNSTimothy Zsoka   Folsom, CA00:00:00.00 239889  999 Team Bicycles Plus/Sierra Neva
DNFEdward Ceaser   San Francisco, CA00:00:00.00 283838  924 Team Roaring Mouse
DNFMatthew BATZ   00:00:00.00  927 NA
DNFJesse Freese   Oakland, CA00:00:00.00 236688  929 Kaiser Permanente - Team Oakla
DNFChristopher Bosch   San Francisco, CA00:00:00.00 261766  930 
DNFJoshua Geiszler   Woodbridge, CA00:00:00.00 219592  932 Delta Velo
DNFNicholas HACK   00:00:00.00  936 Team Roaring Mouse
DNFBarrett Henson   San Luis Obispo, CA00:00:00.00 15881  942 Slo Nexus
DNFAndrew Hsu   Berkeley, CA00:00:00.00 273293  944 Webcor/Alto Velo
DNFLuther Kopf   Oakland, CA00:00:00.00 205705  948 Dolce Vita Cycling
DNFGary Land   Santa Rosa, CA00:00:00.00 181093  950 Team Kinetic Cycles
DNFJohn Mills   Los Angeles, CA00:00:00.00 271452  958 Kaiser Permanente/Team Oakland
DNFHenry Scholz   San Francisco, CA00:00:00.00 267795  985 Team Roaring Mouse
DNFScott Wong   Davis, CA00:00:00.00 256362  996 Davis Bike Club

Men - Cat 4 - Master - 35-99

 Place Points NameCity, StateTime USAC #BibTeam
1519.03Reid Swanson   San Ramon, CA01:55:23.00 203584  1098 NA
2520.17Bill Beers   Danville, CA01:55:23.00 236371  1005 Wells Fargo Racing Team
3521.32Rich Desmond   Penngrove, CA01:55:23.00 247360  1024 Colavita Racing- NorCal
4522.46Warren Woodbury   San Antonio, TX01:55:23.00 286442  1095 IC3
5523.61Russell Voss   Tracy, CA01:55:23.00 258026  1090 Now Direct
6524.75Joseph Foster   Alamo, CA01:55:24.00 286823  1075 Wells Fargo Racing Team
7525.90Kenneth Mejica   San Francisco, CA01:55:24.00 254913  1054 Taleo Racing
8527.04Eric LaFranchi   Calistoga, CA01:55:24.00 199575  1046 ZteaM Cycling
9528.19Russell Gauthier   Pleasanton, CA01:55:25.00 223902  1099 IC3
10529.33Steven Woo   Los Altos, CA01:55:25.00 38840  1094 SugarCRM
11530.48David Morton   Los Gatos, CA01:55:26.00 243225  1062 SJBC/SugarCRM
12531.62Douglas Aldrich   San Jose, CA01:55:26.00 245255  1000 SJBC/SugarCRM
13532.77Robert Napieralski   Springville, CA01:55:26.00 271499  1063 Yokohl Ranch/SSC Racing Team
14533.91Jason Grefrath   Sacramento, CA00:00:00.00 281883  1032 Davis Bike Club
15535.06Eric Cinnamon   Rohnert Park, CA01:55:26.00 273013  1020 Colavita-Sutter Home Norcal
16536.20Steven Kirby   Santa Rosa, CA01:55:26.00 271079  1044 colavita/sutterhome-norcal
17537.34C Jeffrey Bramlett   Palo Alto, CA01:55:26.00 202272  1009 Third Pillar
18538.49Chris Parod   Mather, CA01:55:26.00 270992  1072 Team Bicycles Plus/Sierra Neva
19539.63Greg Tripoli   Hanford, CA01:55:26.00 281420  1087 Rubber Soul/CSC Racing Team
20540.78Nelson Frink   Sutter, CA01:55:27.00 268821  1029 Davis Bike Club
21541.92Mark Hockridge   Granite Bay, CA01:55:27.00 269690  1041 Davis Bike Club
22543.07Mitch Bramlett   Santa Cruz, CA01:55:27.00 4611  1010 Third Pillar
23544.21Francis Goldsberry   Sacramento, CA01:55:27.00 132927  1031 Sacramento Golden Wheelmen
24545.36Matt Conidaris   Gold River, CA01:55:28.00 195944  1022 Body Concepts-Peak Cycling
25546.50David Metzinger   Livermore, CA01:55:28.00 230083  1055 Now Direct
26547.65Rick Lawton   Pleasanton, CA01:55:28.00 141309  1048 Wells Fargo Racing Team
27548.79Bradford Hasse   El Dorado Hills, CA01:55:29.00 236804  1037 Body Concepts
28549.94Randy Volkmar   S Lake Tahoe, CA01:55:30.00 36779  1089 great basin imaging
29551.08Gregory Bennett   San Francisco, CA 205105  1006 
30552.23Matt Wocasek   Santa Cruz, CA01:55:32.00 38747  1093 Team Bicycle Trip
31Rich ARMENDARIZ   01:55:32.00  1001 SJBC/SugarCRM
32554.51Ernie Perreira   Sebastopol, CA01:55:32.00 27775  1074 Team Norcal Bike Sport Club
33555.66Michael Boehme   Windsor, CA01:55:34.00 252576  1007 Colavita/Sutterhome-Norcal
34556.80Tom Vanderheiden   Pleasant Hill, CA01:55:40.00 263253  1088 Wells Fargo Racing Team
35557.95James Rosberg   San Francisco, CA01:55:44.00 215977  1083 Team Roaring Mouse
36559.09Stephen Youtsey   Los Gatos, CA01:55:47.00 102258  1097 Dolce Vita Cycling
37560.24Brian Halkett   Cameron Park, CA01:55:54.00 265702  1034 Davis Bike Club
38561.38marc hamlin   Hathaway Pines, CA01:56:02.00 275127  1035 Pacific State Bank Cycling Tea
39562.53Devin Koch   Truckee, CA01:56:05.00 260704  1045 Dolce Vita
40563.67Victor Furr   Pleasanton, CA01:56:05.00 96225  1030 Now Direct
41564.82Ray Carrier   Tracy, CA01:56:06.00 204769  1016 Now Direct
42565.96Peter Tousignant   Belmont, CA01:56:08.00 231855  1086 Third Pillar
43567.11William Youngman   Rocklin, CA01:56:09.00 203737  1096 Squarda Abruzzo
44568.25Christopher Mink   Richmond, CA01:56:11.00 232894  1059 Taleo Racing
45569.40Patrick Logan   San Ramon, CA01:56:12.00 242583  1051 Third Pillar
46570.54Stefano Moro   Burlingame, CA01:56:17.00 259912  1061 Third Pillar
47571.69Robin Rolles   Sacramento , CA01:56:19.00 219331  1082 Davis Bike Club
48572.83Oscar Nunez   Menlo Park, CA01:56:29.00 220085  1068 Team Integrate/FFBC p/b Chipot
49573.97Greg Bollella   Redwood City, CA01:56:34.00 235126  1008 Webcor / Alto Velo
50575.12Gregory Moyer   Pleasanton, CA01:56:48.00 278755  1004 IC3
51576.26Shawn Overholtzer   Modesto, CA01:56:49.00 229420  1070 InfoVista Cycling Team
52577.41Bill Nicely   San Ramon, CA01:57:08.00 215434  1065 Rubber Soul/CSC Racing Team
53578.55Rich Rozzi   Hollywood Ca01:57:08.00 230031  1084 Colavita/Sutterhome-Norcal
54579.70Peter Newell   Alamo, CA01:57:08.00 268555  1064 Third Pillar
55580.84Allen Jackson   Sonora, CA01:57:12.00 260263  1042 Stanislaus/Merlock Velo
56581.99Joshua Ballesteros   Brentwood, CA01:57:31.00 262160  1002 third pillar
57583.13Rod Fernandez   Dixon, CA01:57:36.00 265576  1027 Davis Bike Club
58584.28Phillip Heiman   Penngrove, CA01:57:58.00 204100  1039 Colavita/Sutterhome-Norcal
60585.42Mark Nichols   Alamo, CA02:01:06.00 83106  1066 Wells Fargo Racing
61586.57Richard Madden   Reno, NV02:08:46.00 237415  1052 SJBC/SugarCRM
62587.71Greg McCormac   Danville, CA02:10:04.00 171823  1053 Wells Fargo Racing
63588.86Jon Orban   Burlingame, CA02:10:22.00 240114  1069 third pillar
64590.00Warren Lane   Lafayette, CA02:12:21.00 227316  1047 Taleo Racing
DNSDaniel Brasse   San Mateo, CA00:00:00.00 245111  1011 Third Pillar
DNSMichael Broz   Sacramento, CA00:00:00.00 41833  1012 Davis Bike Club
DNSShane Calkins   Gold River, CA00:00:00.00 254786  1013 Team Bicycles Plus/Sierra Neva
DNSSamuel Campbell   San Francisco, CA00:00:00.00 242549  1015 Third Pillar
DNSChad Cheadle   Petaluma, CA00:00:00.00 209823  1017 Colavita/Sutter Home-Norcal
DNSJohn Christensen   Los Gatos, CA00:00:00.00 237247  1018 SJBC/SugarCRM
DNSSteve Christiansen   Fair Oaks, CA00:00:00.00 221057  1019 Rio Strada Racing
DNSDavid Clay   Livermore, CA00:00:00.00 195208  1021 Pacific State Bank Cycling Tea
DNSSteve Cooke   Carson City, NV00:00:00.00 286931  1023 NA
DNSDave Dunkley   Clayton, CA00:00:00.00 195560  1025 Wells Fargo Racing Team
DNSMatthew Gregory   Escalon, CA00:00:00.00 250497  1033 InfoVista Cycling Team
DNSRussell Hands   Benicia, CA00:00:00.00 136432  1036 Taleo Racing Team
DNSRalph King   San Mateo, CA00:00:00.00 52299  1043 third Pillar
DNSDave Lederle   Modesto, CA00:00:00.00 128422  1049 Stanislaus Merlock
DNSGregg Lehman   Vacaville, CA00:00:00.00 250959  1050 Precision Bicycles / Team Prec
DNSDouglas Miglaw   Fair Oaks, CA00:00:00.00 257772  1056 Cycling-Training.com
DNSAaron Miller   San Ramon, CA00:00:00.00 281556  1057 Cycling Systems
DNSJeffrey Pallin   Menlo Park, CA00:00:00.00 106496  1071 Third Pillar Systems
DNSDavid Paslay   Petaluma, CA00:00:00.00 244341  1073 Cycling Systems
DNSAaron Phillips   Brentwood, CA00:00:00.00 273263  1076 Cycling Systems
DNSJorge Pont   Menlo Park, CA00:00:00.00 237177  1077 Webcor / Alto Velo
DNSTimothy Roberts   Dixon, CA00:00:00.00 30120  1079 Davis Bike Club
DNSRob Robinson   Castro Valley, CA00:00:00.00 271386  1080 InfoVista Cycling Team
DNSGregg Roh   Sacramento, CA00:00:00.00 58416  1081 Team City
DNSKevin Threm   Aptos, CA00:00:00.00 255687  1085 NA
DNSAdam Waskow   Fairfax, CA00:00:00.00 219104  1091 Whole Athlete
DNSColin Wenstrand   Pleasanton, CA00:00:00.00 87281  1092 InfoVista Cycling Team
DNFChris Callahan   Alamo, CA00:00:00.00 242571  1014 Wells Fargo Racing Team
DNFRoss Errick   Sausalito, CA00:00:00.00 240485  1026 CRC/Poggio
DNFNick Fitton   Livermore, CA00:00:00.00 254446  1028 Wells Fargo Racing Team
DNFJohn Hawkins   Los Osos, CA00:00:00.00 45436  1038 SLO Nexus
DNFBill Higgins   Sacramento, CA00:00:00.00 240634  1040 Squadra Abruzzo
DNFLee Millon   Winters, CA00:00:00.00 254073  1058 Davis Bike Club
DNFPaul Mitchell   Sacramento, CA00:00:00.00 220645  1060 Cycling-Training.com
DNFRyan Nickelson   Danville, CA00:00:00.00 227002  1067 Wells Fargo Racing Team
DNFJonathan Racine   San Jose, CA00:00:00.00 200129  1078 SJBC/SugarCRM

Women - Cat 1/2

 Place Points NameCity, StateTime USAC #BibTeam
1Ina Yoko TEUTENBERG   03:00:25.00  615 Team Columbia Highroad Women
2499.93Brooke Miller   Sebastopol, CA03:00:26.00 196453  646 Team TIBCO
3501.80Laura Charameda   Fulton, CA03:00:26.00 49243  648 All Sport - Team Swift
5503.66Lauren Tamayo   Asheville, NC03:00:28.00 103456  603 Team Tibco
6505.52Vanessa Drigo   Charlotte, NC03:00:28.00 257356  654 Hopkins Honda
7507.38Beatriz Rodriguez   Pomona, CA03:00:28.00 253229  644 Kahala-LaGrange
8509.25Lindsay Myers   Loma Linda, CA03:00:29.00 272063  619 Team SugarCRM
9511.11Amanda Seigle   Citrus Heights, CA03:00:29.00 203755  611 Metromint Cycling
10512.97Kristen LaSasso   Miami, FL03:00:29.00 151408  643 
11514.83Alison Starnes   Mill Valley, CA03:00:29.00 266806  609 Dolce Vita Cycling
12516.70Melodie Metzger (1 - Cat2)   Berkeley, CA03:00:29.00 177985  628 Vanderkitten
13518.56Liza Rachetto   Los Altos, CA03:00:29.00 145511  620 Team SugarCRM
14520.42Olivia Dillon   Fairfax, CA03:00:29.00 232172  623 Touchstone Climbing
15522.28Megan Guarnier   Mountain View, CA03:00:29.00 210981  636 PROMAN Racing
16524.15Starla Teddergreen   Portland, OR03:00:29.00 202033  621 Team SugarCRM
17526.01Karla Kingsley (1 - Cat1)   Kensington, CA03:00:29.00 219191  617 Team SugarCRM
18Kelly BENJAMIN   03:00:30.00  606 Colavita/Sutter Home p/b Cooki
19529.74Alison Rosenthal (2 - Cat1)   Palo Alto, CA03:00:31.00 199109  657 Team TIBCO
21531.60Stacy Marple (3 - Cat1)   Oakland, CA03:00:32.00 234660  604 Colavita Sutter Home P/B Cooki
22533.46Mary Elizabeth Maroon   Sacramento, CA03:00:33.00 219555  655 Vanderkitten
23535.32Lauren Hecht   Mountain View, CA03:00:33.00 261693  639 Webcor Alto Velo
24537.19Yukie Nakamura   Los Altos, CA03:00:33.00 179928  638 Team Kenda Tire
25539.05Kate Ligler   Sausalito, CA03:00:33.00 206217  607 Dolce Vita
26540.91Annie Malouin   Sacramento, CA03:00:33.00 188292  650 Webcor Alto Velo
28542.77Jennie Phillips   Danville, CA03:00:37.00 203722  642 Wells Fargo Racing Team
29544.64Laura Hines   Alta Loma, CA03:00:37.00 89620  637 Southern California Velo
30546.50Morgan Kapp   Claremont, CA03:00:37.00 186865  645 Kahala LaGrange
31548.36Janeen Thorpe (2 - Cat2)   Chico, CA03:00:37.00 254012  652 Chico Corsa / Sierra Nevada
32550.22Emily Zell (3 - Cat2)   Mill Valley, CA03:00:37.00 222480  651 Value Act Capital
33552.09Anny Henry   Mountain View, CA03:00:38.00 238246  610 Metromint Cycling
34553.95Elis Bradshaw   Oakland, CA03:00:39.00 208125  612 Metromint Cycling
35Katheryn MATTIS   03:00:39.00  640 Webcor Builders
36557.67Sarah Bamberger   San Francisco, CA03:00:39.00 179772  630 Touchstone Climbing
38559.54Christine Wehlburg   Herndon, VA03:00:40.00 220922  649 Latitude- ABRT
39561.40Jennifer Van Muckey   Campbell, CA03:00:40.00 207585  622 Team SugarCRM
40563.26Jerika Hutchinson   Mount Shasta, CA03:00:42.00 219674  600 Team TIBCO
41565.13Katharine Carroll   Fairfax, CA03:00:47.00 212327  602 Team TIBCO
42566.99Kimberly Anderson   Santa Barbara, CA03:00:47.00 33201  613 Team Columbia Highroad Women
43568.85Jessica Phillips   Aspen, CO03:00:48.00 142591  626 
44570.71Nichole Wangsgard   Cedar City, UT03:01:21.00 100972  605 Colavita Sutter Home P/B Cooki
DNSMary Ellen Ash   Menlo Park, CA00:00:00.00 254874  618 Team SugarCRM
DNSRebecca Rising   Yosemite, CA00:00:00.00 197841  629 Central Valley Cycling
DNSJane Despas   Menlo Park, CA00:00:00.00 105201  632 Klein Real Estate
DNSEmily Thurston   San Pablo, CA00:00:00.00 128351  634 NA
DNFTracie Nelson   San Luis Obispo, CA00:00:00.00 187659  608 Dolce Vita
DNFKimberly Fong (Cat2)   Berkeley, CA00:00:00.00 238713  616 Team SugarCRM
DNFMaria Monica   Thousand Oaks, CA00:00:00.00 203748  625 Touchstone Climbing Cycling
DNFElizabeth (Betsy) Bloom (Cat1)   Anaheim, CA00:00:00.00 176754  631 Kahala La Grange
DNFPatricia Black   San Luis Obispo, CA00:00:00.00 72039  633 Morgan Stanley /Team Spine/ Sp
DNFKristina Seley   San Luis Obispo, CA00:00:00.00 223809  635 Touchstone Climbing
DNFsusannah breen   Pleasant Hill, CA00:00:00.00 251128  641 wells fargo racing team
DNFAshley Dymond (Cat2)   San Francisco, CA00:00:00.00 204584  647 Pramar Hit Squad
DNFShoshzunz LAXSON   00:00:00.00  656 Local Ride
DNFJennifer Greenberg   Chicago , IL00:00:00.00 231027  658 Vanderkitten

Women - Cat 3

 Place Points NameCity, StateTime USAC #BibTeam
1532.38Bergen Watterson   Durham, NC00:00:00.00 271593  1218 Team Roaring Mouse
2535.69Cody Graf   Sacramento, CA00:00:00.00 248416  1207 Wells Fargo Racing Team
3539.00amy padula   San Francisco, CA00:00:00.00 255277  1213 Touchstone Climbing
4Anne Fischer   00:00:00.00  1206 Davis Bike Club
5545.63Beverly Chaney   Carmel, CA00:00:00.00 221127  1204 Team Roaring Mouse
6548.94Lucia Mokres   Redwood City, CA00:00:00.00 262113  1211 SugarCRM
7552.25Janelle Kellman   Sausalito, CA00:00:00.00 217916  1209 Dolce Vita Cycling
10555.56Kim Wik   Fremont, CA00:00:00.00 254251  1220 Hopkins Honda/Code3Racing
11558.88Darci Page   Reno, NV00:00:00.00 232092  1214 Reno Wheelmen
DNSAngela Aldrich   San Jose, CA00:00:00.00 222858  1200 SJBC/SugarCRM
DNSKim Ladd   Palo Alto, CA00:00:00.00 250460  1210 Hopkins Honda/Code 3 Racing
DNSAmy Russo   Santa Cruz, CA00:00:00.00 134488  1216 Team Bicycle Trip
DNPMarissa Axell   El Cerrito, CA00:00:00.00 269569  1201 Team Roaring Mouse
DNPDaniela Becker   San Francisco, CA00:00:00.00 271980  1202 Team Roaring Mouse
DNPChristi Brander   Seal Beach, CA00:00:00.00 177348  1203 FOG Racing/La Habra
DNPJessica Conner   San Francisco, CA00:00:00.00 181072  1205 Dolce Vita Cycling
DNPApril Hamlin   El Dorado Hills, CA00:00:00.00 266244  1208 Team Integrate/FFBC p/b Chipot
DNPHeather Nielson   Seattle, WA00:00:00.00 237346  1212 Colavita/Sutter Home Northern
DNPMorgan Robinson   San Francisco, CA00:00:00.00 241047  1215 Dolce Vita Cycling
DNPJamie Schoenborn   Seattle, WA00:00:00.00 205987  1217 Team Roaring Mouse
DNPKimberly White   Grand Junction, CO00:00:00.00 209678  1219 Dolce Vita Cycling
DNPJennifer Zierke   Millbrae, CA00:00:00.00 275670  1221 Colavita/Sutter Home Northern
DNPJulie Porter   Auburn, CA00:00:00.00 176587  1222 Velo Bella
DNPFrancesca Barsamian   Oakland, CA00:00:00.00 208596  1223 Team Interdate/FFBL
DNPSoni Andreini Poulsen   Arnold, CA00:00:00.00 235758  1224 Velo Bella

Women - Cat 4

 Place Points NameCity, StateTime USAC #BibTeam
1533.39Bergen Watterson   Durham, NC02:12:58.90 271593  1218 Team Roaring Mouse
2534.59Cody Graf   Sacramento, CA02:12:58.90 248416  1207 Wells Fargo Racing Team
3535.80amy padula   San Francisco, CA02:12:59.10 255277  1213 Touchstone Climbing
4Anna Fischer      Davis Bike Club
5538.21Beverly Chaney   Carmel, CA02:12:59.30 221127  1204 Team Roaring Mouse
6539.41Lucia Mokres   Redwood City, CA02:12:59.50 262113  1211 SugarCRM
7540.62Janelle Kellman   Sausalito, CA02:12:59.70 217916  1209 Dolce Vita Cycling
8541.82Emily Matheu   Oakland, CA02:13:00.40 277109  1266 Team Roaring Mouse
9543.03Lisa Williams   Fresno, CA02:13:00.60 287427  1284 Vapor Racing
10544.23Kim Wik   Fremont, CA02:13:00.60 254251  1220 Hopkins Honda/Code3Racing
11545.43Heather Pryor   Sacramento, CA02:13:00.70 289752  1274 NA
12546.64Tracy Hogan   Portola Valley, CA02:13:00.80 246822  1259 Third Pillar
13547.84Daniela Becker   San Francisco, CA02:13:00.90 271980  1202 Team Roaring Mouse
14549.05Meghan Newcomer   New York, NY02:13:00.90 222210  1269 NA
15550.25Monica Harris   Oakdale, CA02:13:01.00 286874  1287 Info Vista
16551.46Leah Ballamy   Costa Mesa, CA02:13:01.10 270363  1250 Fog Racing
17552.66Meredith Obendorfer   San Francisco, CA02:13:01.20 222062  1288 ROARING MOUSE CYCLES
18553.87Susan Lannoo   Auburn, CA02:13:01.30 287329  1261 Bella Fiore
19555.07Samantha Michel   Fremont, CA02:13:01.50 271101  1267 SugarCRM
20556.27Heather Nielson   Seattle, WA02:13:01.60 237346  1212 Colavita/Sutter Home Northern
21557.48Marissa Axell   El Cerrito, CA02:13:01.80 269569  1201 Team Roaring Mouse
22558.68Yukie Nishinaga   San Luis Obispo, CA02:13:01.90 289972  1289 SLO Nexus - Gym One
23559.89Jennifer Zierke   Millbrae, CA02:13:02.20 275670  1221 Colavita/Sutter Home Northern
24561.09Mary Magnani   San Francisco, CA02:13:02.20 257717  1264 Dolce Vita
25562.30Francesca Barsamian   Oakland, CA02:13:02.40 208596  1223 Team Interdate/FFBL
26563.50Elizabeth Newell   Oakland, CA02:13:02.80 252152  1270 Veritas Cycling
27564.71Julie Porter   Auburn, CA02:13:03.00 176587  1222 Velo Bella
28565.91Ann Stuart   Sacramento, CA02:13:03.80 250365  1280 Team Integrate/FFBC powered by
29567.12Christi Brander   Seal Beach, CA02:13:04.60 177348  1203 FOG Racing/La Habra
30568.32April Hamlin   El Dorado Hills, CA02:13:05.60 266244  1208 Team Integrate/FFBC p/b Chipot
31Shaba MOHSENI   02:13:05.60  1290 SLO Nexus - Gym One
32570.73Soni Andreini Poulsen   Arnold, CA02:13:06.00 235758  1224 Velo Bella
33571.93Cheryl Shwe   San Francisco, CA02:13:06.10 271152  1277 ZTeam
34573.14Jessica Conner   San Francisco, CA02:13:08.60 181072  1205 Dolce Vita Cycling
35574.34Wendy Welling   Santa Rosa, CA02:13:09.60 290339  1283 Fightin' Bobas
37575.55Ashley Shimabuku   El Cerrito, CA02:13:10.40 271338  1294 Team Roaring Mouse
38Tamara PRESSER   02:13:10.40  1291 SLO Nexus - Gym One
39577.96Mary Glenn Carrasco   Foster City, CA02:13:12.10 266378  1253 Team Integrate/ FFBC powered b
40579.16Beth Butrymowicz   Campbell, CA02:13:16.80 267372  1252 SugarCRM
41580.36Ariana Preston   Sacramento, CA02:13:17.30 274099  1273 Colavita
42581.57Kimberly White   Grand Junction, CO02:13:27.40 209678  1219 Dolce Vita Cycling
43582.77Jamie Schoenborn   Seattle, WA02:14:33.80 205987  1217 Team Roaring Mouse
44583.98Brett Ortiz   San Francisco, CA02:15:05.50 271361  1272 Zteam
45585.18Joie Franco   Fremont, CA02:16:48.60 262057  1256 Hopkins Honda/Code 3 Racing
46586.39Morgan Robinson   San Francisco, CA02:17:05.20 241047  1215 Dolce Vita Cycling
47587.59Christine Anderson   Reno, NV02:19:27.80 207135  1286 Reno Wheelmen
48588.80Jennifer Baer   Brisbane, CA02:19:27.90 290287  1293 Third Pillar
49590.00Sherri Lehman   Gold River, CA02:19:27.90 274098  1262 Team Integrate/FFBC p/b Chipot
DNSAngela Aldrich   San Jose, CA00:00:00.00 222858  1200 SJBC/SugarCRM
DNSAnne Fulton   Palo Alto, CA00:00:00.00 275624  1206 NA
DNSKim Ladd   Palo Alto, CA00:00:00.00 250460  1210 Hopkins Honda/Code 3 Racing
DNSAmy Russo   Santa Cruz, CA00:00:00.00 134488  1216 Team Bicycle Trip
DNSJeanine Bates   San Francisco, CA00:00:00.00 195292  1251 Hopkins Honda/Code 3 Racing
DNSKeila Classen   Palo Alto, CA00:00:00.00 239635  1254 SugarCRM
DNSJulie Eades   Redwood City, CA00:00:00.00 224565  1255 unattached
DNSChristine HARRIS   00:00:00.00  1257 Dolce Vita
DNSMichele Heaton   Santa Cruz, CA00:00:00.00 273618  1258 team bicycle trip
DNSAlissa Maglaty   Portland00:00:00.00 288500  1263 Early Bird Women's Development
DNSKatherine SCOTT-SMITH   00:00:00.00  1275 Early Bird Women's Development
DNSKelly Snow   San Francisco, CA00:00:00.00 255117  1278 Dolce Vita
DNSLisa Stefke   Berkeley, CA00:00:00.00 255542  1279 Left Coast Racing Team
DNSKimberly Sudbrink   Santa Cruz, CA00:00:00.00 271314  1281 Team Bicycle Trip
DNSMargaret Winder   Lafayette, CA00:00:00.00 237600  1285 Metromint Cycling
DNFAshleigh Jackson   San Jose, CA00:00:00.00 287609  1260 AltaVelo/Webcor
DNFKathy MARTIN   00:00:00.00  1265 FOG racing
DNFCathy Morgan   Nashville, TN00:00:00.00 204300  1268 Team Roaring Mouse
DNFMarja Nousiainen   Menlo Park, CA00:00:00.00 203255  1271 Team Roaring Mouse
DNFSofia Veniard   Santa Rosa, CA00:00:00.00 280847  1282 Colavita Racing

Report missing or incorrect license numbers

Volkswagen
ShimanoCUORESierra NevadaBonk BreakerSpyUSACDF
UCI USA Cycling is the official governing body for all disciplines of competitive cycling in the United States. The 501c3, membership-based organization aims both to achieve sustained success in international cycling competition and to grow competitive cycling in America while delivering an exceptional customer experience.
View Children's Online Privacy Protection Policy
US Olympic Committee